CW7858 Murcia ES current weather conditions

sailwx.info

Wind from 199 at 1 knots gusting 5

Air temperature 30.6° C
Dewpoint 12.0° C

Last reported at 2017-Sep-24 17:02 UTC.
Time now 2017-Sep-24 17:40 UTC

Location: N 37°60' W 001°08'.
View on Google Maps.

See reports from other nearby stations

  
Tides and Currents Weather Stations Pressure Air Temp Water Temp Dewpoint Dewpoint Depression Visibility Wind Speed Wind Dir Waves Ship Positions
date/time (UTC)wind fromknots sea level pressurealtimeterstation pressurevisibilityair tempwater tempwave heightnotes
2017-Sep-24 17:02 199 1 gusting 5 30.6
2017-Sep-24 16:52 162 1 gusting 5 30.6
2017-Sep-24 16:42 128 0 gusting 8 30.6
2017-Sep-24 16:32 277 2 gusting 6 30.6
2017-Sep-24 16:22 164 4 gusting 12 30.6
2017-Sep-24 16:12 136 1 gusting 6 31.1
2017-Sep-24 16:02 161 5 gusting 11 30.6
2017-Sep-24 15:52 113 5 gusting 10 31.1
2017-Sep-24 15:42 275 2 gusting 8 31.1
2017-Sep-24 15:32 107 1 gusting 9 31.1
2017-Sep-24 15:22 155 3 gusting 10 31.7
2017-Sep-24 15:12 257 2 gusting 10 32.2
2017-Sep-24 15:02 151 0 gusting 9 32.2
2017-Sep-24 14:52 121 3 gusting 6 32.2
2017-Sep-24 14:42 220 0 gusting 6 32.8
2017-Sep-24 14:32 113 1 gusting 4 32.8
2017-Sep-24 14:22 128 0 gusting 6 32.2
2017-Sep-24 14:12 096 4 gusting 6 31.7
2017-Sep-24 14:02 137 3 gusting 6 31.7
2017-Sep-24 13:52 051 0 gusting 2 31.7
2017-Sep-24 13:42 112 0 gusting 5 30.6
2017-Sep-24 13:32 088 3 gusting 6 30.6
2017-Sep-24 13:22 059 2 gusting 6 31.1
2017-Sep-24 13:12 065 0 gusting 4 31.7
2017-Sep-24 13:02 052 0 gusting 4 30.6
2017-Sep-24 12:52 054 0 gusting 2 30.6
2017-Sep-24 12:42 126 3 gusting 5 30.6
2017-Sep-24 12:32 016 0 gusting 4 30.0
2017-Sep-24 12:22 027 29.4
2017-Sep-24 12:12 040 1 gusting 4 28.9
2017-Sep-24 12:02 049 1 gusting 5 28.3
2017-Sep-24 11:52 062 0 gusting 2 28.9
2017-Sep-24 11:42 137 0 gusting 2 28.3
2017-Sep-24 11:32 131 0 gusting 3 27.8
2017-Sep-24 11:22 044 2 gusting 4 27.2
2017-Sep-24 11:12 141 1 gusting 4 27.2
2017-Sep-24 11:02 078 0 gusting 2 27.2
2017-Sep-24 10:52 042 0 gusting 1 26.7
2017-Sep-24 10:42 278 1 gusting 4 26.7
2017-Sep-24 10:32 330 0 gusting 3 26.7
2017-Sep-24 10:22 121 1 gusting 2 26.1
2017-Sep-24 10:12 181 0 gusting 5 25.6
2017-Sep-24 10:02 229 1 gusting 5 25.0
2017-Sep-24 09:52 282 24.4
2017-Sep-24 09:42 176 1 gusting 6 23.9
2017-Sep-24 09:32 244 0 gusting 2 24.4
2017-Sep-24 09:22 203 0 gusting 2 23.3
2017-Sep-24 09:12 250 1 gusting 2 23.3
2017-Sep-24 09:02 234 0 gusting 1 22.8
2017-Sep-24 08:52 289 22.2
2017-Sep-24 08:42 229 0 gusting 4 21.7
2017-Sep-24 08:32 209 21.7
2017-Sep-24 08:22 196 0 gusting 1 21.1
2017-Sep-24 08:12 234 0 gusting 2 21.1
2017-Sep-24 08:02 165 0 gusting 2 20.0
2017-Sep-24 07:52 250 1 gusting 2 19.4
2017-Sep-24 07:42 248 1 gusting 3 18.9
2017-Sep-24 07:32 234 0 gusting 3 18.9
2017-Sep-24 07:22 202 0 gusting 2 18.9
2017-Sep-24 07:12 205 0 gusting 2 18.3
2017-Sep-24 07:02 224 1 gusting 3 17.8
2017-Sep-24 06:52 209 1 gusting 4 17.8
2017-Sep-24 06:42 250 1 gusting 2 17.8
2017-Sep-24 06:32 186 1 gusting 3 17.2
2017-Sep-24 06:22 205 0 gusting 4 17.2
2017-Sep-24 06:12 212 0 gusting 3 17.2
2017-Sep-24 06:02 215 17.2
2017-Sep-24 05:52 226 0 gusting 2 17.2
2017-Sep-24 05:42 234 0 gusting 1 17.8
2017-Sep-24 05:32 237 0 gusting 2 17.8
2017-Sep-24 05:22 192 17.8
2017-Sep-24 05:12 219 0 gusting 2 17.8
2017-Sep-24 05:02 247 1 gusting 2 17.8
2017-Sep-24 04:52 271 1 gusting 2 17.8
2017-Sep-24 04:42 244 0 gusting 2 17.8
2017-Sep-24 04:32 254 1 gusting 2 17.8
2017-Sep-24 04:22 233 0 gusting 2 17.8
2017-Sep-24 04:12 217 0 gusting 2 17.8
2017-Sep-24 04:02 212 0 gusting 1 18.3
2017-Sep-24 03:52 246 0 gusting 2 18.3
2017-Sep-24 03:42 230 0 gusting 1 18.3
2017-Sep-24 03:32 239 0 gusting 2 18.3
2017-Sep-24 03:22 257 0 gusting 2 18.3
2017-Sep-24 03:12 246 1 gusting 2 18.3
2017-Sep-24 03:02 212 0 gusting 3 18.3
2017-Sep-24 02:52 220 1 gusting 4 18.3
2017-Sep-24 02:42 213 1 gusting 2 18.9
2017-Sep-24 02:32 196 0 gusting 2 18.9
2017-Sep-24 02:22 212 18.9
2017-Sep-24 02:12 205 0 gusting 1 18.9
2017-Sep-24 02:03 182 0 gusting 1 18.9
2017-Sep-24 01:52 230 18.9
2017-Sep-24 01:42 209 0 gusting 2 18.9
2017-Sep-24 01:32 193 18.9
2017-Sep-24 01:22 175 19.4
2017-Sep-24 01:12 233 19.4
2017-Sep-24 01:02 229 0 gusting 1 19.4
2017-Sep-24 00:52 217 0 gusting 4 20.0
2017-Sep-24 00:42 186 0 gusting 2 20.0
2017-Sep-24 00:32 227 0 gusting 1 20.0
2017-Sep-24 00:22 254 20.6
2017-Sep-24 00:12 254 0 gusting 1 20.6
2017-Sep-24 00:02 246 20.6
2017-Sep-23 23:52 216 20.6
2017-Sep-23 23:42 240 0 gusting 2 20.6
2017-Sep-23 23:32 239 0 gusting 1 20.6
2017-Sep-23 23:22 227 21.1
2017-Sep-23 23:12 210 21.1
2017-Sep-23 23:02 200 0 gusting 1 21.7
2017-Sep-23 22:52 209 0 gusting 1 21.7
2017-Sep-23 22:42 171 21.7
2017-Sep-23 22:32 171 22.2
2017-Sep-23 22:22 169 0 gusting 1 22.2
2017-Sep-23 22:12 048 0 gusting 1 22.2
2017-Sep-23 22:02 013 0 gusting 1 22.2
2017-Sep-23 21:52 040 0 gusting 1 22.2
2017-Sep-23 21:42 028 0 gusting 1 22.2
2017-Sep-23 21:32 045 1 gusting 2 22.8
2017-Sep-23 21:22 068 0 gusting 1 22.8
2017-Sep-23 21:12 088 22.8
2017-Sep-23 21:02 090 22.8
2017-Sep-23 20:52 088 1 gusting 2 22.8
2017-Sep-23 20:42 065 0 gusting 4 22.8
2017-Sep-23 20:32 079 0 gusting 4 22.8
2017-Sep-23 20:22 085 0 gusting 5 22.8
2017-Sep-23 20:12 080 0 gusting 4 22.8
2017-Sep-23 20:02 080 2 gusting 8 22.8
2017-Sep-23 19:52 059 2 gusting 6 23.3
2017-Sep-23 19:42 288 1 gusting 6 23.3
2017-Sep-23 19:32 096 3 gusting 6 23.3
2017-Sep-23 19:22 082 2 gusting 6 23.3
2017-Sep-23 19:12 090 3 gusting 5 23.9
2017-Sep-23 19:02 110 1 gusting 4 23.9
2017-Sep-23 18:52 042 23.9
2017-Sep-23 18:42 360 1 gusting 5 23.9
2017-Sep-23 18:32 066 2 gusting 6 23.9
2017-Sep-23 18:22 071 4 gusting 6 24.4
2017-Sep-23 18:12 062 3 gusting 8 24.4
2017-Sep-23 18:03 080 4 gusting 8 25.0
2017-Sep-23 17:52 048 0 gusting 9 25.0
2017-Sep-23 17:42 069 6 gusting 9 25.0
2017-Sep-23 17:32 008 5 gusting 11 25.0
2017-Sep-23 17:22 071 4 gusting 8 25.6
2017-Sep-23 17:12 080 4 gusting 12 25.6
2017-Sep-23 17:02 085 2 gusting 9 25.6
2017-Sep-23 16:52 092 6 gusting 10 26.1
2017-Sep-23 16:42 048 5 gusting 13 26.1
2017-Sep-23 16:32 071 1 gusting 9 26.1
2017-Sep-23 16:22 107 5 gusting 9 26.7
2017-Sep-23 16:12 257 1 gusting 9 27.2
2017-Sep-23 16:02 073 1 gusting 9 26.7
2017-Sep-23 15:52 106 4 gusting 8 26.7
2017-Sep-23 15:42 114 5 gusting 9 26.7
2017-Sep-23 15:32 128 4 gusting 9 27.2
2017-Sep-23 15:22 065 6 gusting 10 27.2
2017-Sep-23 15:12 117 3 gusting 10 27.2
2017-Sep-23 15:02 113 4 gusting 9 27.2
2017-Sep-23 14:52 073 4 gusting 9 27.2
2017-Sep-23 14:42 066 3 gusting 6 27.2
2017-Sep-23 14:32 088 1 gusting 12 27.2
2017-Sep-23 14:22 116 5 gusting 10 27.2
2017-Sep-23 14:12 045 4 gusting 6 27.2
2017-Sep-23 14:02 085 2 gusting 9 26.7
2017-Sep-23 13:52 058 4 gusting 9 27.2
2017-Sep-23 13:42 289 2 gusting 11 27.2
2017-Sep-23 13:32 080 0 gusting 10 27.2
2017-Sep-23 13:12 102 3 gusting 8 26.1
2017-Sep-23 13:02 073 5 gusting 10 26.1
2017-Sep-23 12:52 049 5 gusting 10 26.1
2017-Sep-23 12:42 090 5 gusting 9 26.7
2017-Sep-23 12:32 040 3 gusting 8 26.7
2017-Sep-23 12:22 220 0 gusting 6 26.7
2017-Sep-23 12:12 119 1 gusting 6 26.1
2017-Sep-23 12:02 096 0 gusting 6 26.1
2017-Sep-23 11:52 356 1 gusting 4 26.1
2017-Sep-23 11:42 085 0 gusting 9 25.0
2017-Sep-23 11:32 088 6 gusting 8 25.0
2017-Sep-23 11:22 045 0 gusting 8 25.0
2017-Sep-23 11:12 052 1 gusting 6 25.0
2017-Sep-23 11:03 175 25.0
2017-Sep-23 10:52 080 3 gusting 9 25.0
2017-Sep-23 10:42 127 2 gusting 6 25.0
2017-Sep-23 10:33 040 2 gusting 6 24.4
2017-Sep-23 10:22 350 4 gusting 8 23.9
2017-Sep-23 10:12 079 4 gusting 8 24.4
2017-Sep-23 10:03 023 2 gusting 5 24.4
2017-Sep-23 09:52 003 0 gusting 2 24.4
2017-Sep-23 09:42 113 0 gusting 2 24.4
2017-Sep-23 09:32 165 0 gusting 1 23.3
2017-Sep-23 09:22 329 0 gusting 2 22.8
2017-Sep-23 09:12 250 22.8
2017-Sep-23 09:02 240 0 gusting 3 22.8
2017-Sep-23 08:52 233 0 gusting 2 22.2
2017-Sep-23 08:42 302 21.7
2017-Sep-23 08:32 246 1 gusting 5 21.7
2017-Sep-23 08:22 247 1 gusting 4 21.1
2017-Sep-23 08:12 254 2 gusting 3 20.6
2017-Sep-23 08:02 223 0 gusting 2 20.6
2017-Sep-23 07:52 189 0 gusting 1 20.6
2017-Sep-23 07:42 198 0 gusting 2 20.0
2017-Sep-23 07:32 256 20.0
2017-Sep-23 07:22 292 20.0
2017-Sep-23 07:12 274 0 gusting 2 19.4
2017-Sep-23 07:02 271 1 gusting 2 19.4
2017-Sep-23 06:52 257 0 gusting 2 19.4
2017-Sep-23 06:42 263 0 gusting 1 19.4
2017-Sep-23 06:32 268 0 gusting 2 18.9
2017-Sep-23 06:22 246 0 gusting 2 18.9
2017-Sep-23 06:12 257 1 gusting 2 18.9
2017-Sep-23 06:02 240 0 gusting 3 18.9
2017-Sep-23 05:52 260 1 gusting 2 18.9
2017-Sep-23 05:42 241 1 gusting 2 18.9
2017-Sep-23 05:32 250 0 gusting 2 18.9
2017-Sep-23 05:22 210 0 gusting 1 18.9
2017-Sep-23 05:12 191 0 gusting 2 19.4
2017-Sep-23 05:02 191 0 gusting 3 19.4
2017-Sep-23 04:52 224 0 gusting 1 19.4
2017-Sep-23 04:42 237 0 gusting 1 19.4
2017-Sep-23 04:32 233 0 gusting 2 19.4
2017-Sep-23 04:22 251 19.4
2017-Sep-23 04:12 220 19.4
2017-Sep-23 04:02 203 20.0
2017-Sep-23 03:52 213 0 gusting 1 20.0
2017-Sep-23 03:42 239 0 gusting 0 20.0
2017-Sep-23 03:32 239 20.0
2017-Sep-23 03:22 239 20.6
2017-Sep-23 03:12 239 20.6
2017-Sep-23 03:02 241 20.6
2017-Sep-23 02:52 244 21.1
2017-Sep-23 02:42 248 21.1
2017-Sep-23 02:32 021 1 gusting 2 21.1
2017-Sep-23 02:22 313 0 gusting 1 21.1
2017-Sep-23 02:12 357 1 gusting 4 21.1
2017-Sep-23 02:03 014 1 gusting 5 21.1
2017-Sep-23 01:52 003 1 gusting 4 21.1
2017-Sep-23 01:42 346 0 gusting 2 21.1
2017-Sep-23 01:32 353 1 gusting 5 21.7
2017-Sep-23 01:22 360 1 gusting 3 21.7
2017-Sep-23 01:12 016 0 gusting 2 21.7
2017-Sep-23 01:02 066 1 gusting 3 21.7
2017-Sep-23 00:52 037 1 gusting 3 21.7
2017-Sep-23 00:42 023 22.2
2017-Sep-23 00:32 054 0 gusting 2 22.2
2017-Sep-23 00:22 008 1 gusting 2 22.2
2017-Sep-23 00:12 023 2 gusting 5 22.2
2017-Sep-23 00:02 042 1 gusting 4 22.2
2017-Sep-22 23:52 031 2 gusting 5 22.2
2017-Sep-22 23:42 052 0 gusting 4 22.2
2017-Sep-22 23:32 031 1 gusting 2 22.2
2017-Sep-22 23:22 028 1 gusting 2 22.2
2017-Sep-22 23:12 062 22.8
2017-Sep-22 23:02 007 1 gusting 2 22.8
2017-Sep-22 22:52 001 0 gusting 3 22.8
2017-Sep-22 22:42 360 0 gusting 4 22.8
2017-Sep-22 22:32 054 0 gusting 4 22.8
2017-Sep-22 22:22 054 1 gusting 4 22.8
2017-Sep-22 22:12 054 1 gusting 3 22.8
2017-Sep-22 22:02 052 1 gusting 4 22.8
2017-Sep-22 21:52 086 0 gusting 5 22.8
2017-Sep-22 21:42 055 0 gusting 6 22.8
2017-Sep-22 21:32 020 1 gusting 2 22.8
2017-Sep-22 21:22 054 0 gusting 4 22.8
2017-Sep-22 21:12 028 1 gusting 4 22.8
2017-Sep-22 21:02 075 2 gusting 4 22.8
2017-Sep-22 20:52 056 1 gusting 5 22.8
2017-Sep-22 20:42 096 2 gusting 6 22.8
2017-Sep-22 20:32 064 1 gusting 4 22.8
2017-Sep-22 20:22 112 1 gusting 5 22.8
2017-Sep-22 20:12 099 1 gusting 4 23.3
2017-Sep-22 20:02 031 1 gusting 5 23.3
2017-Sep-22 19:52 062 1 gusting 6 23.3
2017-Sep-22 19:42 069 2 gusting 6 23.3
2017-Sep-22 19:32 016 1 gusting 6 23.3
2017-Sep-22 19:22 062 3 gusting 7 23.3
2017-Sep-22 19:12 054 0 gusting 6 23.3
2017-Sep-22 19:02 065 1 gusting 6 23.3
2017-Sep-22 18:52 080 5 gusting 6 23.3
2017-Sep-22 18:42 103 5 gusting 8 23.3
2017-Sep-22 18:32 025 3 gusting 10 23.3
2017-Sep-22 18:22 342 9 gusting 9 23.9
2017-Sep-22 18:12 107 4 gusting 11 23.9
2017-Sep-22 18:02 104 2 gusting 11 23.9
2017-Sep-22 17:52 103 4 gusting 13 23.9
2017-Sep-22 17:42 096 7 gusting 12 23.9
2017-Sep-22 17:32 103 1 gusting 11 24.4
2017-Sep-22 17:22 034 2 gusting 17 24.4
2017-Sep-22 17:12 007 7 gusting 13 24.4
2017-Sep-22 17:02 023 6 gusting 13 24.4